AAL50 KDFW-EGLL

Flight info

Callsign AAL50
Flight time N/A
Altitude 37000
Route AKUNA9 MLC DCT WULVS DCT ARG DCT SIDAE DCT IIU DCT FLM DCT CLNTN DCT KODIE DCT ALLCO DCT AIRCO DCT BOBSU DCT MIXAK DCT 53N073W DCT 5670N DCT SEMTO/N0495F390 DCT MUSLO/M084F390 DCT NIFTY DCT 6150N DCT 6140N DCT 6130N DCT 6120N DCT 6115N DCT ATSIX/N0490F390 DCT AKIVO/N0491F410 DCT STN DCT FENIK DCT AKOMU DCT VAMEB DCT NUGRA
Aircraft B772/H-SDE2E3FGHIJ5LORVWXY/LB1D1

Departure

Time 2026-05-06 20:48
Airport Dallas Fort Worth International Airport (KDFW)

Arrival

Time N/A
Airport London Heathrow Airport (EGLL)
Time Latitude Longitude Altitude Speed Heading
2026-05-06 19:06 32.89663 -97.04581 602 ft 0 kts 90°
2026-05-06 20:20 32.89663 -97.04601 602 ft 4 kts 90°
2026-05-06 20:20 32.89663 -97.04633 602 ft 3 kts 90°
2026-05-06 20:21 32.89664 -97.04656 602 ft 4 kts 128°
2026-05-06 20:21 32.89682 -97.04667 602 ft 3 kts 180°
2026-05-06 20:21 32.89709 -97.04667 602 ft 3 kts 180°
2026-05-06 20:21 32.89714 -97.04666 602 ft 0 kts 180°
2026-05-06 20:27 32.89710 -97.04667 602 ft 4 kts 181°
2026-05-06 20:28 32.89680 -97.04668 601 ft 14 kts 182°
2026-05-06 20:28 32.89548 -97.04670 602 ft 20 kts 181°
2026-05-06 20:28 32.89443 -97.04686 601 ft 20 kts 213°
2026-05-06 20:28 32.89382 -97.04756 599 ft 3 kts 239°
2026-05-06 20:29 32.89388 -97.04807 599 ft 14 kts 275°
2026-05-06 20:29 32.89343 -97.04923 601 ft 18 kts 216°
2026-05-06 20:29 32.89218 -97.04989 595 ft 11 kts 189°
2026-05-06 20:29 32.89193 -97.04997 595 ft 0 kts 199°
2026-05-06 20:30 32.89192 -97.04997 595 ft 0 kts 201°
2026-05-06 20:30 32.89167 -97.05041 595 ft 19 kts 255°
2026-05-06 20:31 32.89305 -97.05160 600 ft 36 kts 13°
2026-05-06 20:31 32.89402 -97.04914 598 ft 21 kts 95°
2026-05-06 20:31 32.89400 -97.04836 587 ft 0 kts 90°
2026-05-06 20:38 32.89400 -97.04831 600 ft 2 kts 90°
2026-05-06 20:38 32.89399 -97.04814 600 ft 8 kts 100°
2026-05-06 20:39 32.89315 -97.04769 599 ft 17 kts 180°
2026-05-06 20:39 32.89179 -97.04771 599 ft 22 kts 181°
2026-05-06 20:39 32.89000 -97.04774 595 ft 29 kts 180°
2026-05-06 20:39 32.88787 -97.04775 595 ft 32 kts 180°
2026-05-06 20:40 32.88594 -97.04777 592 ft 22 kts 181°
2026-05-06 20:40 32.88504 -97.04727 591 ft 12 kts 97°
2026-05-06 20:40 32.88502 -97.04611 592 ft 15 kts 91°
2026-05-06 20:40 32.88500 -97.04473 595 ft 18 kts 91°
2026-05-06 20:41 32.88499 -97.04336 602 ft 16 kts 90°
2026-05-06 20:41 32.88497 -97.04210 612 ft 15 kts 90°
2026-05-06 20:41 32.88497 -97.04075 605 ft 17 kts 90°
2026-05-06 20:41 32.88496 -97.03917 601 ft 19 kts 90°
2026-05-06 20:42 32.88496 -97.03886 600 ft 1 kts 90°
2026-05-06 20:42 32.88496 -97.03872 600 ft 4 kts 88°
2026-05-06 20:42 32.88497 -97.03809 596 ft 12 kts 89°
2026-05-06 20:42 32.88497 -97.03747 593 ft 7 kts 89°
2026-05-06 20:43 32.88498 -97.03659 588 ft 14 kts 91°
2026-05-06 20:43 32.88496 -97.03517 584 ft 19 kts 90°
2026-05-06 20:43 32.88495 -97.03344 580 ft 21 kts 90°
2026-05-06 20:43 32.88494 -97.03263 578 ft 1 kts 95°
2026-05-06 20:44 32.88485 -97.03238 582 ft 5 kts 119°
2026-05-06 20:44 32.88454 -97.03214 580 ft 6 kts 161°
2026-05-06 20:44 32.88410 -97.03206 583 ft 7 kts 179°
2026-05-06 20:44 32.88357 -97.03206 582 ft 9 kts 180°
2026-05-06 20:45 32.88285 -97.03204 583 ft 12 kts 179°
2026-05-06 20:45 32.88188 -97.03204 581 ft 16 kts 180°
2026-05-06 20:45 32.88173 -97.03204 581 ft 0 kts 180°
2026-05-06 20:46 32.88121 -97.03207 581 ft 18 kts 180°
2026-05-06 20:46 32.87993 -97.03205 582 ft 18 kts 180°
2026-05-06 20:46 32.87907 -97.03121 584 ft 18 kts 97°
2026-05-06 20:47 32.87952 -97.03010 577 ft 16 kts 17°
2026-05-06 20:47 32.88074 -97.03007 580 ft 27 kts
2026-05-06 20:47 32.88495 -97.03007 579 ft 93 kts
2026-05-06 20:47 32.89353 -97.03001 583 ft 151 kts
2026-05-06 20:48 32.90551 -97.02994 670 ft 190 kts
2026-05-06 20:48 32.91942 -97.02971 1093 ft 201 kts 358°
2026-05-06 20:48 32.93322 -97.02967 1980 ft 192 kts 358°
2026-05-06 20:48 32.94659 -97.02948 2659 ft 200 kts
2026-05-06 20:49 32.96134 -97.02915 2814 ft 220 kts 359°
2026-05-06 20:49 32.97737 -97.02867 2802 ft 239 kts 359°
2026-05-06 20:49 32.99471 -97.02811 2897 ft 256 kts
2026-05-06 20:49 33.01270 -97.02741 3171 ft 265 kts 360°
2026-05-06 20:50 33.03147 -97.02678 3454 ft 273 kts 359°
2026-05-06 20:50 33.05057 -97.02608 3910 ft 276 kts 358°
2026-05-06 20:50 33.06995 -97.02534 4265 ft 280 kts
2026-05-06 20:50 33.08880 -97.02085 4566 ft 286 kts 22°
2026-05-06 20:51 33.10666 -97.01020 4905 ft 288 kts 25°
2026-05-06 20:51 33.12488 -96.99982 5315 ft 291 kts 22°
2026-05-06 20:51 33.14329 -96.98973 5730 ft 288 kts 22°
2026-05-06 20:51 33.16175 -96.97972 5747 ft 292 kts 21°
2026-05-06 20:52 33.18011 -96.96984 5762 ft 293 kts 21°
2026-05-06 20:52 33.19860 -96.95986 5763 ft 291 kts 22°
2026-05-06 20:52 33.21720 -96.94981 5755 ft 292 kts 21°
2026-05-06 20:52 33.23563 -96.93985 5763 ft 292 kts 21°
2026-05-06 20:53 33.25424 -96.92977 5766 ft 293 kts 22°
2026-05-06 20:53 33.27268 -96.91979 5763 ft 294 kts 21°
2026-05-06 20:53 33.29142 -96.90964 5766 ft 294 kts 21°
2026-05-06 20:53 33.30988 -96.89962 5761 ft 293 kts 21°
2026-05-06 20:54 33.32859 -96.88948 5745 ft 293 kts 21°
2026-05-06 20:54 33.34707 -96.87945 5741 ft 292 kts 22°
2026-05-06 20:54 33.36539 -96.86950 5746 ft 291 kts 21°
2026-05-06 20:54 33.38401 -96.85940 5749 ft 291 kts 21°
2026-05-06 20:55 33.40228 -96.84948 5751 ft 291 kts 21°
2026-05-06 20:55 33.42082 -96.83940 5752 ft 291 kts 22°
2026-05-06 20:55 33.43915 -96.82944 5765 ft 292 kts 21°
2026-05-06 20:55 33.45772 -96.81902 5768 ft 293 kts 26°
2026-05-06 20:56 33.47539 -96.80690 5780 ft 295 kts 29°
2026-05-06 20:56 33.49287 -96.79391 5782 ft 295 kts 30°
2026-05-06 20:56 33.51019 -96.78088 5789 ft 296 kts 29°
2026-05-06 20:56 33.52751 -96.76788 5787 ft 295 kts 28°
2026-05-06 20:57 33.54505 -96.75480 6130 ft 295 kts 28°
2026-05-06 20:57 33.56236 -96.74194 6576 ft 296 kts 28°
2026-05-06 20:57 33.58004 -96.72886 6982 ft 299 kts 28°
2026-05-06 20:57 33.59776 -96.71580 7343 ft 303 kts 28°
2026-05-06 20:58 33.61589 -96.70245 7757 ft 306 kts 27°
2026-05-06 20:58 33.63392 -96.68917 8156 ft 308 kts 27°
2026-05-06 20:58 33.65237 -96.67562 8544 ft 311 kts 27°
2026-05-06 20:58 33.67073 -96.66212 8916 ft 314 kts 27°
2026-05-06 20:59 33.68955 -96.64829 9297 ft 318 kts 27°
2026-05-06 20:59 33.70838 -96.63444 9712 ft 320 kts 27°
2026-05-06 20:59 33.72104 -96.62513 9926 ft 323 kts 27°
2026-05-06 20:59 33.74730 -96.60585 10082 ft 342 kts 27°
2026-05-06 21:00 33.76122 -96.59562 10127 ft 352 kts 27°
2026-05-06 21:00 33.78233 -96.58011 10249 ft 367 kts 28°
2026-05-06 21:00 33.80472 -96.56364 10375 ft 383 kts 28°
2026-05-06 21:00 33.82770 -96.54671 10571 ft 398 kts 28°
2026-05-06 21:01 33.85186 -96.52888 10857 ft 409 kts 28°
2026-05-06 21:01 33.87617 -96.51090 11236 ft 417 kts 28°
2026-05-06 21:01 33.90118 -96.49238 11706 ft 422 kts 28°
2026-05-06 21:01 33.92616 -96.47387 12213 ft 427 kts 27°
2026-05-06 21:02 33.95142 -96.45516 12687 ft 431 kts 27°
2026-05-06 21:02 33.97740 -96.43590 13193 ft 437 kts 27°
2026-05-06 21:02 34.00325 -96.41675 13647 ft 443 kts 27°
2026-05-06 21:02 34.02975 -96.39709 13855 ft 446 kts 27°
2026-05-06 21:03 34.05611 -96.37752 13827 ft 447 kts 27°
2026-05-06 21:03 34.08265 -96.35777 13822 ft 445 kts 27°
2026-05-06 21:03 34.10874 -96.33835 13813 ft 444 kts 26°
2026-05-06 21:03 34.13535 -96.31856 14132 ft 448 kts 26°
2026-05-06 21:04 34.16176 -96.29889 14752 ft 449 kts 26°
2026-05-06 21:04 34.18832 -96.27912 15267 ft 452 kts 26°
2026-05-06 21:04 34.21545 -96.25892 15722 ft 457 kts 26°
2026-05-06 21:04 34.24244 -96.23880 16205 ft 462 kts 26°
2026-05-06 21:05 34.26978 -96.21840 16704 ft 466 kts 26°
2026-05-06 21:05 34.29773 -96.19751 17240 ft 469 kts 26°
2026-05-06 21:05 34.32544 -96.17678 17799 ft 472 kts 26°
2026-05-06 21:05 34.35341 -96.15585 18213 ft 478 kts 26°
2026-05-06 21:06 34.38162 -96.13472 18674 ft 481 kts 26°
2026-05-06 21:06 34.41029 -96.11322 19193 ft 482 kts 25°
2026-05-06 21:06 34.43872 -96.09187 19691 ft 485 kts 25°
2026-05-06 21:06 34.46766 -96.07014 20161 ft 488 kts 25°
2026-05-06 21:07 34.49649 -96.04847 20632 ft 491 kts 25°
2026-05-06 21:07 34.52539 -96.02674 21083 ft 494 kts 24°
2026-05-06 21:07 34.55497 -96.00448 21523 ft 497 kts 24°
2026-05-06 21:07 34.58436 -95.98234 21954 ft 500 kts 24°
2026-05-06 21:08 34.61389 -95.96006 22460 ft 502 kts 23°
2026-05-06 21:08 34.64352 -95.93768 22882 ft 505 kts 23°
2026-05-06 21:08 34.67326 -95.91522 23274 ft 508 kts 23°
2026-05-06 21:08 34.70362 -95.89227 23599 ft 511 kts 23°
2026-05-06 21:09 34.73368 -95.86952 23900 ft 514 kts 23°
2026-05-06 21:09 34.76391 -95.84661 24227 ft 516 kts 23°
2026-05-06 21:09 34.79460 -95.82332 24549 ft 517 kts 24°
2026-05-06 21:09 34.82416 -95.79723 24763 ft 532 kts 34°
2026-05-06 21:10 34.84986 -95.76445 24998 ft 547 kts 46°
2026-05-06 21:10 34.87121 -95.72604 25323 ft 557 kts 57°
2026-05-06 21:10 34.88784 -95.68263 25583 ft 561 kts 63°
2026-05-06 21:10 34.90293 -95.63919 25847 ft 564 kts 64°
2026-05-06 21:11 34.91825 -95.59477 26071 ft 566 kts 64°
2026-05-06 21:11 34.93354 -95.55088 26307 ft 569 kts 63°
2026-05-06 21:11 34.94930 -95.50630 26551 ft 571 kts 63°
2026-05-06 21:11 34.96531 -95.46159 26784 ft 574 kts 63°
2026-05-06 21:12 34.98138 -95.41709 27020 ft 576 kts 62°
2026-05-06 21:12 34.99746 -95.37269 27251 ft 578 kts 62°
2026-05-06 21:12 35.01365 -95.32799 27451 ft 580 kts 62°
2026-05-06 21:12 35.03006 -95.28256 27708 ft 581 kts 62°
2026-05-06 21:13 35.04629 -95.23748 27943 ft 583 kts 62°
2026-05-06 21:13 35.06248 -95.19243 28129 ft 585 kts 63°
2026-05-06 21:13 35.07891 -95.14659 28282 ft 587 kts 63°
2026-05-06 21:13 35.09520 -95.10106 28445 ft 589 kts 63°
2026-05-06 21:14 35.11170 -95.05489 28627 ft 591 kts 63°
2026-05-06 21:14 35.12808 -95.00898 28780 ft 593 kts 63°
2026-05-06 21:14 35.14449 -94.96290 28934 ft 594 kts 63°
2026-05-06 21:14 35.16094 -94.91669 29166 ft 596 kts 63°
2026-05-06 21:15 35.17736 -94.87044 29352 ft 596 kts 63°
2026-05-06 21:15 35.19386 -94.82390 29583 ft 596 kts 63°
2026-05-06 21:15 35.21045 -94.77707 29824 ft 596 kts 63°
2026-05-06 21:15 35.22677 -94.73090 30008 ft 595 kts 63°
2026-05-06 21:16 35.24316 -94.68452 30164 ft 595 kts 63°
2026-05-06 21:16 35.25953 -94.63811 30343 ft 595 kts 63°
2026-05-06 21:16 35.27600 -94.59133 30535 ft 594 kts 63°
2026-05-06 21:16 35.29227 -94.54507 30756 ft 593 kts 63°
2026-05-06 21:17 35.30844 -94.49898 31025 ft 590 kts 62°
2026-05-06 21:17 35.32453 -94.45308 31228 ft 590 kts 62°
2026-05-06 21:17 35.34089 -94.40636 31390 ft 590 kts 62°
2026-05-06 21:17 35.35693 -94.36050 31514 ft 591 kts 62°
2026-05-06 21:18 35.37309 -94.31423 31652 ft 591 kts 62°
2026-05-06 21:18 35.38931 -94.26768 31801 ft 591 kts 62°
2026-05-06 21:18 35.40542 -94.22139 31944 ft 591 kts 62°
2026-05-06 21:18 35.42142 -94.17533 32176 ft 588 kts 62°
2026-05-06 21:19 35.43744 -94.12908 32639 ft 582 kts 62°
2026-05-06 21:19 35.45310 -94.08382 32833 ft 581 kts 62°
2026-05-06 21:19 35.46891 -94.03815 32870 ft 584 kts 62°
2026-05-06 21:20 35.50053 -93.94663 33047 ft 585 kts 62°
2026-05-06 21:20 35.51654 -93.90011 33236 ft 585 kts 62°
2026-05-06 21:20 35.53151 -93.85412 33381 ft 587 kts 66°
2026-05-06 21:20 35.54359 -93.80618 33504 ft 591 kts 72°
2026-05-06 21:21 35.55373 -93.75765 33752 ft 588 kts 72°
2026-05-06 21:21 35.56367 -93.70851 33926 ft 588 kts 72°
2026-05-06 21:21 35.57341 -93.66011 34012 ft 588 kts 73°
2026-05-06 21:22 35.59338 -93.56268 34105 ft 591 kts 72°
2026-05-06 21:22 35.61385 -93.46473 34283 ft 592 kts 72°
2026-05-06 21:23 35.63445 -93.36664 34413 ft 593 kts 72°
2026-05-06 21:23 35.65494 -93.26837 34519 ft 595 kts 72°
2026-05-06 21:24 35.67537 -93.16960 34673 ft 596 kts 72°
2026-05-06 21:24 35.69572 -93.07075 34769 ft 597 kts 72°
2026-05-06 21:25 35.71602 -92.97175 34777 ft 599 kts 72°
2026-05-06 21:25 35.73639 -92.87199 34800 ft 601 kts 72°
2026-05-06 21:26 35.75659 -92.77263 34798 ft 602 kts 73°
2026-05-06 21:26 35.77688 -92.67231 34801 ft 602 kts 73°
2026-05-06 21:27 35.79702 -92.57225 34803 ft 601 kts 72°
2026-05-06 21:27 35.81702 -92.47242 34796 ft 599 kts 73°
2026-05-06 21:28 35.83679 -92.37335 34788 ft 597 kts 73°
2026-05-06 21:28 35.85655 -92.27382 34805 ft 595 kts 73°
2026-05-06 21:29 35.87608 -92.17503 34797 ft 593 kts 73°
2026-05-06 21:29 35.89540 -92.07687 34798 ft 591 kts 73°
2026-05-06 21:30 35.91474 -91.97816 34789 ft 591 kts 73°
2026-05-06 21:30 35.93397 -91.87947 34786 ft 591 kts 72°
2026-05-06 21:31 35.95300 -91.78146 34797 ft 591 kts 72°
2026-05-06 21:31 35.97215 -91.68231 34796 ft 591 kts 73°
2026-05-06 21:32 35.99107 -91.58384 34798 ft 592 kts 73°
2026-05-06 21:32 36.01939 -91.43563 34803 ft 592 kts 72°
2026-05-06 21:33 36.03814 -91.33689 34794 ft 592 kts 72°
2026-05-06 21:33 36.05692 -91.23755 34809 ft 593 kts 73°
2026-05-06 21:34 36.07560 -91.13818 34790 ft 593 kts 72°
2026-05-06 21:34 36.09409 -91.03946 34802 ft 592 kts 72°
2026-05-06 21:35 36.11668 -90.94198 34799 ft 585 kts 63°
2026-05-06 21:35 36.15035 -90.85199 34807 ft 575 kts 55°
2026-05-06 21:36 36.18735 -90.76419 34795 ft 575 kts 55°
2026-05-06 21:36 36.22395 -90.67588 34797 ft 575 kts 56°
2026-05-06 21:37 36.25996 -90.58758 34824 ft 575 kts 56°
2026-05-06 21:37 36.29585 -90.49899 34806 ft 575 kts 56°
2026-05-06 21:38 36.33144 -90.41100 34802 ft 575 kts 56°
2026-05-06 21:38 36.36724 -90.32235 34809 ft 575 kts 56°
2026-05-06 21:39 36.40304 -90.23347 34795 ft 575 kts 56°
2026-05-06 21:39 36.43867 -90.14479 34788 ft 574 kts 56°
2026-05-06 21:40 36.47428 -90.05591 34798 ft 574 kts 57°
2026-05-06 21:40 36.50954 -89.96764 34838 ft 574 kts 57°
2026-05-06 21:41 36.54513 -89.87833 34820 ft 574 kts 57°
2026-05-06 21:41 36.58034 -89.78970 34831 ft 575 kts 57°
2026-05-06 21:42 36.61586 -89.70005 34827 ft 576 kts 57°
2026-05-06 21:42 36.65109 -89.61089 34826 ft 576 kts 57°
2026-05-06 21:43 36.68646 -89.52111 34823 ft 577 kts 57°
2026-05-06 21:43 36.72161 -89.43163 34826 ft 577 kts 57°
2026-05-06 21:44 36.75692 -89.34149 34852 ft 578 kts 57°
2026-05-06 21:44 36.79212 -89.25137 34833 ft 579 kts 57°
2026-05-06 21:45 36.82726 -89.16115 34839 ft 579 kts 57°
2026-05-06 21:45 36.86223 -89.07111 34838 ft 578 kts 57°
2026-05-06 21:46 36.89729 -88.98055 34823 ft 578 kts 57°
2026-05-06 21:46 36.93218 -88.89021 34820 ft 577 kts 57°
2026-05-06 21:47 36.96677 -88.80040 34828 ft 576 kts 57°
2026-05-06 21:47 37.00140 -88.71018 34832 ft 576 kts 57°
2026-05-06 21:48 37.03600 -88.61981 34822 ft 575 kts 57°
2026-05-06 21:48 37.07055 -88.52931 34820 ft 574 kts 58°
2026-05-06 21:49 37.10465 -88.43972 34814 ft 573 kts 57°
2026-05-06 21:49 37.13889 -88.34950 34819 ft 572 kts 57°
2026-05-06 21:50 37.17302 -88.25933 34817 ft 571 kts 58°
2026-05-06 21:50 37.20707 -88.16909 34822 ft 571 kts 58°
2026-05-06 21:51 37.24088 -88.07925 34835 ft 571 kts 58°
2026-05-06 21:51 37.27462 -87.98930 34835 ft 571 kts 58°
2026-05-06 21:52 37.30830 -87.89922 34835 ft 569 kts 58°
2026-05-06 21:52 37.34178 -87.80925 34833 ft 569 kts 58°
2026-05-06 21:53 37.37418 -87.71826 34829 ft 569 kts 59°
2026-05-06 21:53 37.40591 -87.62720 34839 ft 568 kts 59°
2026-05-06 21:54 37.43746 -87.53683 34824 ft 567 kts 59°
2026-05-06 21:54 37.46931 -87.44589 34836 ft 567 kts 59°
2026-05-06 21:55 37.50118 -87.35479 34833 ft 567 kts 59°
2026-05-06 21:55 37.53276 -87.26418 34822 ft 566 kts 59°
2026-05-06 21:56 37.56428 -87.17340 34829 ft 565 kts 59°
2026-05-06 21:56 37.59550 -87.08319 34821 ft 564 kts 59°
2026-05-06 21:57 37.62687 -86.99232 34841 ft 564 kts 60°
2026-05-06 21:57 37.65795 -86.90200 34832 ft 563 kts 60°
2026-05-06 21:58 37.68916 -86.81101 34837 ft 564 kts 60°
2026-05-06 21:58 37.72013 -86.72047 34828 ft 564 kts 60°
2026-05-06 21:59 37.75115 -86.62947 34820 ft 564 kts 60°
2026-05-06 21:59 37.78200 -86.53868 34825 ft 563 kts 60°
2026-05-06 22:00 37.81298 -86.44728 34817 ft 563 kts 60°
2026-05-06 22:00 37.84371 -86.35630 34817 ft 563 kts 60°
2026-05-06 22:01 37.87417 -86.26582 34812 ft 562 kts 60°
2026-05-06 22:01 37.90473 -86.17477 34848 ft 563 kts 60°
2026-05-06 22:02 37.93538 -86.08322 34818 ft 563 kts 60°
2026-05-06 22:02 37.96588 -85.99176 34816 ft 563 kts 60°
2026-05-06 22:03 37.99620 -85.90057 34818 ft 563 kts 60°
2026-05-06 22:03 38.02661 -85.80884 34825 ft 563 kts 60°
2026-05-06 22:04 38.05664 -85.71793 34820 ft 563 kts 60°
2026-05-06 22:04 38.08695 -85.62591 34825 ft 563 kts 60°
2026-05-06 22:05 38.11948 -85.53651 34838 ft 555 kts 53°
2026-05-06 22:05 38.15734 -85.45120 34826 ft 555 kts 52°
2026-05-06 22:06 38.19532 -85.36621 34828 ft 555 kts 53°
2026-05-06 22:06 38.23311 -85.28021 34833 ft 555 kts 53°
2026-05-06 22:07 38.26410 -85.20898 34832 ft 555 kts 53°
2026-05-06 22:07 38.30156 -85.12255 34836 ft 555 kts 53°
2026-05-06 22:08 38.33883 -85.03642 34845 ft 555 kts 53°
2026-05-06 22:08 38.37581 -84.95081 34844 ft 554 kts 53°
2026-05-06 22:09 38.41287 -84.86480 34836 ft 554 kts 53°
2026-05-06 22:09 38.44991 -84.77860 34844 ft 553 kts 53°
2026-05-06 22:10 38.48687 -84.69233 34837 ft 553 kts 53°
2026-05-06 22:10 38.52350 -84.60659 34852 ft 552 kts 53°
2026-05-06 22:11 38.56028 -84.52025 34850 ft 552 kts 53°
2026-05-06 22:11 38.59670 -84.43454 34861 ft 552 kts 53°
2026-05-06 22:12 38.63320 -84.34842 34862 ft 552 kts 53°
2026-05-06 22:12 38.66631 -84.25879 34868 ft 560 kts 61°
2026-05-06 22:13 38.69413 -84.16567 34868 ft 561 kts 62°
2026-05-06 22:13 38.72169 -84.07230 34865 ft 561 kts 62°
2026-05-06 22:14 38.74940 -83.97970 34884 ft 561 kts 62°
2026-05-06 22:14 38.77745 -83.88662 34887 ft 560 kts 61°
2026-05-06 22:15 38.80563 -83.79292 34860 ft 561 kts 62°
2026-05-06 22:15 38.83353 -83.69970 34866 ft 560 kts 62°
2026-05-06 22:16 38.86132 -83.60640 34863 ft 560 kts 62°
2026-05-06 22:16 38.88903 -83.51304 34879 ft 560 kts 62°
2026-05-06 22:17 38.91666 -83.41963 34869 ft 559 kts 62°
2026-05-06 22:17 38.94405 -83.32674 34886 ft 559 kts 62°
2026-05-06 22:18 38.97153 -83.23321 34872 ft 559 kts 62°
2026-05-06 22:18 38.99883 -83.14000 34860 ft 559 kts 62°
2026-05-06 22:19 39.02608 -83.04660 34857 ft 558 kts 62°
2026-05-06 22:19 39.05326 -82.95312 34852 ft 558 kts 62°
2026-05-06 22:20 39.08028 -82.85983 34848 ft 557 kts 62°
2026-05-06 22:20 39.10729 -82.76628 34861 ft 556 kts 62°
2026-05-06 22:21 39.13402 -82.67339 34894 ft 556 kts 62°
2026-05-06 22:21 39.16088 -82.57971 34864 ft 556 kts 62°
2026-05-06 22:22 39.18748 -82.48658 34857 ft 555 kts 62°
2026-05-06 22:22 39.21418 -82.39277 34856 ft 555 kts 62°
2026-05-06 22:23 39.24048 -82.30006 34860 ft 554 kts 62°
2026-05-06 22:23 39.26678 -82.20697 34860 ft 553 kts 62°
2026-05-06 22:24 39.29302 -82.11382 34865 ft 552 kts 62°
2026-05-06 22:24 39.31912 -82.02084 34892 ft 552 kts 62°
2026-05-06 22:25 39.34526 -81.92734 34879 ft 552 kts 62°
2026-05-06 22:25 39.37125 -81.83405 34862 ft 552 kts 62°
2026-05-06 22:26 39.39710 -81.74096 34865 ft 552 kts 63°
2026-05-06 22:26 39.42299 -81.64733 34858 ft 552 kts 63°
2026-05-06 22:27 39.44874 -81.55390 34853 ft 552 kts 63°
2026-05-06 22:27 39.47449 -81.46010 34856 ft 551 kts 63°
2026-05-06 22:28 39.49998 -81.36693 34874 ft 551 kts 63°
2026-05-06 22:28 39.52905 -81.27630 34843 ft 533 kts 49°
2026-05-06 22:29 39.54990 -81.23787 34855 ft 519 kts 40°
2026-05-06 22:29 39.57403 -81.20375 34854 ft 506 kts 32°
2026-05-06 22:29 39.60066 -81.17546 34854 ft 490 kts 24°
2026-05-06 22:29 39.62859 -81.14958 34857 ft 490 kts 24°
2026-05-06 22:30 39.68378 -81.09790 34856 ft 492 kts 25°
2026-05-06 22:30 39.73914 -81.04508 34858 ft 495 kts 25°
2026-05-06 22:31 39.79428 -80.99190 34856 ft 496 kts 25°
2026-05-06 22:31 39.84978 -80.93818 34857 ft 496 kts 25°
2026-05-06 22:32 39.90500 -80.88466 34883 ft 497 kts 26°
2026-05-06 22:32 39.96051 -80.83078 34848 ft 497 kts 26°
2026-05-06 22:33 40.01580 -80.77701 34841 ft 496 kts 26°
2026-05-06 22:33 40.07095 -80.72326 34842 ft 495 kts 26°
2026-05-06 22:34 40.12603 -80.66947 34855 ft 495 kts 26°
2026-05-06 22:34 40.18094 -80.61574 34864 ft 494 kts 26°
2026-05-06 22:35 40.23591 -80.56185 34867 ft 494 kts 26°
2026-05-06 22:35 40.29084 -80.50788 34871 ft 493 kts 26°
2026-05-06 22:36 40.34526 -80.45428 34841 ft 492 kts 26°
2026-05-06 22:36 40.39997 -80.40031 34843 ft 491 kts 26°
2026-05-06 22:37 40.45579 -80.35023 34832 ft 474 kts 15°
2026-05-06 22:37 40.48556 -80.33363 34847 ft 461 kts
2026-05-06 22:37 40.51619 -80.32192 34862 ft 451 kts
2026-05-06 22:38 40.57739 -80.31011 34843 ft 445 kts 357°
2026-05-06 22:38 40.63868 -80.29888 34848 ft 446 kts 358°
2026-05-06 22:39 40.70008 -80.28720 34849 ft 447 kts 358°
2026-05-06 22:39 40.76188 -80.27522 34846 ft 450 kts 358°
2026-05-06 22:40 40.82347 -80.26321 34876 ft 451 kts 358°
2026-05-06 22:40 40.88571 -80.25105 34877 ft 452 kts 358°
2026-05-06 22:41 40.97929 -80.23272 34892 ft 455 kts 358°
2026-05-06 22:42 41.04202 -80.22042 34889 ft 456 kts 358°
2026-05-06 22:42 41.10487 -80.20806 34886 ft 457 kts 358°
2026-05-06 22:43 41.16788 -80.19564 34919 ft 458 kts 358°
2026-05-06 22:43 41.23072 -80.18324 34889 ft 459 kts 358°